Location: Schommer Observatory
(40.5200°N, 74.4500°W)
Time: 09:42:52
(UTC-04:00)

Tiangong 2 - Pass Details

Date: 25 May 2018
Orbit: 382 x 385 km, 42.8° (Epoch: 27 May)

Event Time Altitude Azimuth Distance (km) Brightness Sun altitude
Rises 20:42:18 0° 252° (WSW) 2,246 5.6 -5.0°
Reaches altitude 10° 20:44:22 10° 252° (WSW) 1,395 4.5 -5.3°
Maximum altitude 20:47:31 88° 171° (S) 385 1.0 -5.8°
Drops below altitude 10° 20:50:40 10° 74° (ENE) 1,398 3.5 -6.3°
Sets 20:52:44 0° 74° (ENE) 2,252 4.6 -6.6°
